Location: Staunton
(38.1490°N, 79.0720°W)
Time: 23:15:40
(UTC-05:00)

ISS - Pass Details

Date: 24 January 2021
Orbit: 417 x 422 km, 51.6° (Epoch: 07 March)

Event Time Altitude Azimuth Distance (km) Brightness Sun altitude
Rises 18:56:18 0° 292° (WNW) 2,370 1.0 -16.9°
Reaches altitude 10° 19:00:03 10° 335° (NNW) 1,508 -0.8 -17.6°
Maximum altitude 19:00:45 11° 347° (NNW) 1,479 -1.0 -17.7°
Drops below altitude 10° 19:01:28 10° 359° (N) 1,509 -1.0 -17.9°
Enters shadow 19:01:37 10° 2° (N) 1,523 -1.1 -17.9°
